Time,TemperatureF,DewpointF,PressureIn,WindDirection,WindDirectionDegrees,WindSpeedMPH,WindSpeedGustMPH,Humidity,HourlyPrecipIn,Conditions,Clouds,dailyrainin,SoftwareType,DateUTC
2013-09-06 00:03:00,53.7,-99.9,-100.00,North,-999,0.0,0.0,-999,0.00,,,-99.99,WeatherLink 5.4,2013-09-06 04:03:00,
2013-09-06 00:33:00,52.6,-99.9,-100.00,North,-999,0.0,0.0,-999,0.00,,,-99.99,WeatherLink 5.4,2013-09-06 04:33:00,
2013-09-06 01:03:00,52.6,-99.9,-100.00,North,-999,0.0,0.0,-999,0.00,,,-99.99,WeatherLink 5.4,2013-09-06 05:03:00,
2013-09-06 01:33:00,52.3,-99.9,-100.00,North,-999,0.0,0.0,-999,0.00,,,-99.99,WeatherLink 5.4,2013-09-06 05:33:00,
2013-09-06 02:03:00,52.0,-99.9,-100.00,North,-999,0.0,0.0,-999,0.00,,,-99.99,WeatherLink 5.4,2013-09-06 06:03:00,
2013-09-06 02:33:00,51.5,-99.9,-100.00,North,-999,0.0,0.0,-999,0.00,,,-99.99,WeatherLink 5.4,2013-09-06 06:33:00,
2013-09-06 03:03:00,51.6,-99.9,-100.00,North,-999,0.0,0.0,-999,0.00,,,-99.99,WeatherLink 5.4,2013-09-06 07:03:00,
2013-09-06 03:33:00,50.8,-99.9,-100.00,North,-999,0.0,0.0,-999,0.00,,,-99.99,WeatherLink 5.4,2013-09-06 07:33:00,
2013-09-06 04:03:00,50.6,-99.9,-100.00,North,-999,0.0,0.0,-999,0.00,,,-99.99,WeatherLink 5.4,2013-09-06 08:03:00,
2013-09-06 04:33:00,50.2,-99.9,-100.00,North,-999,0.0,0.0,-999,0.00,,,-99.99,WeatherLink 5.4,2013-09-06 08:33:00,
2013-09-06 05:03:00,49.2,-99.9,-100.00,North,-999,0.0,0.0,-999,0.00,,,-99.99,WeatherLink 5.4,2013-09-06 09:03:00,
2013-09-06 05:33:00,48.2,-99.9,-100.00,North,-999,0.0,0.0,-999,0.00,,,-99.99,WeatherLink 5.4,2013-09-06 09:33:00,
2013-09-06 06:03:00,48.3,-99.9,-100.00,North,-999,0.0,0.0,-999,0.00,,,-99.99,WeatherLink 5.4,2013-09-06 10:03:00,
2013-09-06 06:33:00,47.9,-99.9,-100.00,North,-999,0.0,0.0,-999,0.00,,,-99.99,WeatherLink 5.4,2013-09-06 10:33:00,
2013-09-06 07:03:00,47.5,-99.9,-100.00,North,-999,0.0,0.0,-999,0.00,,,-99.99,WeatherLink 5.4,2013-09-06 11:03:00,
2013-09-06 07:33:00,47.5,-99.9,-100.00,North,-999,0.0,0.0,-999,0.00,,,-99.99,WeatherLink 5.4,2013-09-06 11:33:00,
2013-09-06 08:03:00,48.0,-99.9,-100.00,North,-999,0.0,0.0,-999,0.00,,,-99.99,WeatherLink 5.4,2013-09-06 12:03:00,
2013-09-06 08:33:00,49.5,-99.9,-100.00,North,-999,0.0,0.0,-999,0.00,,,-99.99,WeatherLink 5.4,2013-09-06 12:33:00,
2013-09-06 09:03:00,52.1,-99.9,-100.00,North,-999,0.0,0.0,-999,0.00,,,-99.99,WeatherLink 5.4,2013-09-06 13:03:00,
2013-09-06 09:33:00,53.4,-99.9,-100.00,North,-999,0.0,0.0,-999,0.00,,,-99.99,WeatherLink 5.4,2013-09-06 13:33:00,
2013-09-06 10:03:00,55.5,-99.9,-100.00,North,0,0.0,3.0,-999,0.00,,,-99.99,WeatherLink 5.4,2013-09-06 14:03:00,
2013-09-06 10:33:00,57.7,-99.9,-100.00,WSW,247,0.0,4.0,-999,0.00,,,-99.99,WeatherLink 5.4,2013-09-06 14:33:00,
2013-09-06 11:03:00,59.6,-99.9,-100.00,WSW,247,0.0,5.0,-999,0.00,,,-99.99,WeatherLink 5.4,2013-09-06 15:03:00,
2013-09-06 11:33:00,60.6,-99.9,-100.00,WSW,247,0.0,4.0,-999,0.00,,,-99.99,WeatherLink 5.4,2013-09-06 15:33:00,
2013-09-06 12:03:00,61.7,-99.9,-100.00,WSW,247,0.0,5.0,-999,0.00,,,-99.99,WeatherLink 5.4,2013-09-06 16:03:00,
2013-09-06 12:33:00,63.4,-99.9,-100.00,SW,225,0.0,3.0,-999,0.00,,,-99.99,WeatherLink 5.4,2013-09-06 16:33:00,
2013-09-06 13:03:00,64.8,-99.9,-100.00,North,-999,0.0,1.0,-999,0.00,,,-99.99,WeatherLink 5.4,2013-09-06 17:03:00,
2013-09-06 13:33:00,67.1,-99.9,-100.00,North,-999,0.0,1.0,-999,0.00,,,-99.99,WeatherLink 5.4,2013-09-06 17:33:00,
2013-09-06 14:03:00,82.3,-99.9,-100.00,North,-999,0.0,0.0,-999,0.00,,,-99.99,WeatherLink 5.4,2013-09-06 18:03:00,
2013-09-06 14:33:00,71.0,-99.9,-100.00,WSW,247,0.0,1.0,-999,0.00,,,-99.99,WeatherLink 5.4,2013-09-06 18:33:00,
2013-09-06 15:03:00,71.3,-99.9,-100.00,North,-999,0.0,1.0,-999,0.00,,,-99.99,WeatherLink 5.4,2013-09-06 19:03:00,
2013-09-06 15:33:00,72.2,-99.9,-100.00,WSW,247,0.0,2.0,-999,0.00,,,-99.99,WeatherLink 5.4,2013-09-06 19:33:00,
2013-09-06 16:03:00,72.8,-99.9,-100.00,West,270,0.0,3.0,-999,0.00,,,-99.99,WeatherLink 5.4,2013-09-06 20:03:00,
2013-09-06 16:33:00,73.2,-99.9,-100.00,WNW,292,0.0,1.0,-999,0.00,,,-99.99,WeatherLink 5.4,2013-09-06 20:33:00,
2013-09-06 17:03:00,72.8,-99.9,-100.00,WNW,292,0.0,4.0,-999,0.00,,,-99.99,WeatherLink 5.4,2013-09-06 21:03:00,
2013-09-06 17:33:00,72.7,-99.9,-100.00,SW,225,0.0,5.0,-999,0.00,,,-99.99,WeatherLink 5.4,2013-09-06 21:33:00,
2013-09-06 18:03:00,72.8,-99.9,-100.00,SW,225,0.0,3.0,-999,0.00,,,-99.99,WeatherLink 5.4,2013-09-06 22:03:00,
2013-09-06 18:33:00,72.3,-99.9,-100.00,SW,225,0.0,4.0,-999,0.00,,,-99.99,WeatherLink 5.4,2013-09-06 22:33:00,
2013-09-06 19:03:00,70.5,-99.9,-100.00,North,-999,0.0,2.0,-999,0.00,,,-99.99,WeatherLink 5.4,2013-09-06 23:03:00,
2013-09-06 19:33:00,68.3,-99.9,-100.00,North,-999,0.0,0.0,-999,0.00,,,-99.99,WeatherLink 5.4,2013-09-06 23:33:00,
2013-09-06 20:03:00,66.5,-99.9,-100.00,North,-999,0.0,0.0,-999,0.00,,,-99.99,WeatherLink 5.4,2013-09-07 00:03:00,
2013-09-06 20:33:00,63.8,-99.9,-100.00,North,-999,0.0,0.0,-999,0.00,,,-99.99,WeatherLink 5.4,2013-09-07 00:33:00,
2013-09-06 21:03:00,61.4,-99.9,-100.00,North,-999,0.0,0.0,-999,0.00,,,-99.99,WeatherLink 5.4,2013-09-07 01:03:00,
2013-09-06 21:33:00,60.3,-99.9,-100.00,North,-999,0.0,0.0,-999,0.00,,,-99.99,WeatherLink 5.4,2013-09-07 01:33:00,
2013-09-06 22:03:00,59.7,-99.9,-100.00,North,-999,0.0,0.0,-999,0.00,,,-99.99,WeatherLink 5.4,2013-09-07 02:03:00,
2013-09-06 22:33:00,58.9,-99.9,-100.00,North,-999,0.0,0.0,-999,0.00,,,-99.99,WeatherLink 5.4,2013-09-07 02:33:00,
2013-09-06 23:03:00,58.6,-99.9,-100.00,North,-999,0.0,0.0,-999,0.00,,,-99.99,WeatherLink 5.4,2013-09-07 03:03:00,
2013-09-06 23:33:00,57.3,-99.9,-100.00,North,-999,0.0,0.0,-999,0.00,,,-99.99,WeatherLink 5.4,2013-09-07 03:33:00,